Regional Weather Roundup
Issued by NWS

Home | Current Version | Previous Version | Text Only | Print | Product List | Glossary Off
Versions: 1 2 3 4 5 6 7 8 9 10 11 12 13 14 15 16 17 18 19 20 21 22 23 24 25 26 27 28 29 30 31 32 33 34 35 36 37 38 39 40 41 42 43 44 45 46 47 48 49 50

000
ASUS45 KBOU 091810
RWRCO

WEATHER ROUNDUP FOR COLORADO
NATIONAL WEATHER SERVICE DENVER/BOULDER CO
1200 PM MDT WED JUL 09 2014

NOTE: "FAIR" INDICATES FEW OR NO CLOUDS BELOW 12000 FEET WITH NO
SIGNIFICANT WEATHER AND/OR OBSTRUCTIONS TO VISIBILITY.

COZ001>005-013-030-031-091900-
...NORTHWEST COLORADO...

CITY           SKY/WX    TMP DP  RH WIND       PRES   REMARKS
CRAIG          MOSUNNY   80  47  31 SW12G18   30.20F
HAYDEN         MOSUNNY   81  45  28 W6        30.23F
MEEKER         MOSUNNY   82  46  28 SW5       30.22F
MOUNT WERNER   MOSUNNY   64  37  36 W8        30.57S
STEAMBOAT SPGS MOSUNNY   77  46  32 SW6       30.26S
WALDEN         SUNNY     77  36  22 SW5       30.33S
$$

COZ006>008-011-091900-
...WEST CENTRAL VALLEYS...

CITY           SKY/WX    TMP DP  RH WIND       PRES   REMARKS
GRAND JUNCTION MOSUNNY   85  46  25 NW3       30.13F
MONTROSE       SUNNY     85  44  23 VRB5      30.22F
EAGLE          MOSUNNY   81  45  28 SW9G21    30.25F
RIFLE          MOSUNNY   84  45  25 NE6       30.18F
DELTA          SUNNY     87  44  22 SE6       30.17F
NUCLA          SUNNY     81  45  28 N3        30.26F
$$

COZ017>023-064>068-091900-
...SOUTHWEST COLORADO...

CITY           SKY/WX    TMP DP  RH WIND       PRES   REMARKS
DURANGO        SUNNY     78  45  30 VRB5      30.29F
CORTEZ         SUNNY     81  50  33 SW5       30.24F
PAGOSA SPRINGS SUNNY     75  39  27 CALM      30.36F
TELLURIDE      SUNNY     70  46  43 SW6       30.44F
WOLF CREEK PAS NOT AVBL
$$

COZ009-010-012-014-032>034-037-058>063-091900-
...CENTRAL COLORADO...

CITY           SKY/WX    TMP DP  RH WIND       PRES   REMARKS
ASPEN          MOSUNNY   77  40  26 VRB7      30.34F
BUENA VISTA    MOSUNNY   77  40  26 E6        30.33F
COPPER MTN     MOSUNNY   64  32  29 W20G25    30.67F
BERTHOUD PASS  FAIR      54  39  58 N5        30.72F
COTTONWOOD PAS MOSUNNY   73  34  23 NE3       30.49F
GUNNISON       NOT AVBL
KREMMLING      SUNNY     79  34  19 CALM      30.30F
LEADVILLE      MOSUNNY   68  35  29 N8G17     30.48F
MONARCH PASS   MOSUNNY   59  41  51 SW12      30.77S
SALIDA         MOSUNNY   80  42  26 CALM      30.37F
SUNLIGHT       SUNNY     64  45  48 CALM      30.61S
WILKERSON PASS PTSUNNY   64  37  36 NW5       30.63S
$$

COZ069>075-091900-
...SAN LUIS VALLEY/SANGRE DE CRISTO MOUNTAINS...

CITY           SKY/WX    TMP DP  RH WIND       PRES   REMARKS
ALAMOSA        MOSUNNY   74  48  39 VRB5      30.34F
LA VETA PASS   MOSUNNY   64  43  45 W6        30.52F
SAGUACHE       NOT AVBL
$$

COZ035-036-038>040-091900-
...NORTHERN COLORADO FRONT RANGE...

CITY           SKY/WX    TMP DP  RH WIND       PRES   REMARKS
DENVER INTL AP MOSUNNY   91  39  16 VRB3      30.08F
DMNS CITY PARK   N/A     91  41  17 E2G9      30.07S
AURORA         MOSUNNY   89  44  21 NE6       30.11F
FRONT RANGE AP MOSUNNY   90  41  18 CALM      30.11F
ERIE MUNI ARPT MOSUNNY   86  49  27 NE12G17   30.07S
BOULDER MUN AP MOSUNNY   82  59  44 N12       30.08S
CENTENNIAL     MOSUNNY   90  36  14 NE8       30.12F
BROOMFIELD     PTSUNNY   90  45  20 NE3       30.11F
FORT COLLINS   PTSUNNY   81  63  54 E10       30.09F
LONGMONT       PTSUNNY   85  61  44 NE14      30.10S
$$

COZ041-046-047-076>085-087-088-091900-
...PIKES PEAK/PALMER DIVIDE AND SOUTHERN FOOTHILLS...

CITY           SKY/WX    TMP DP  RH WIND       PRES   REMARKS
COLO. SPRINGS  PTSUNNY   81  47  30 SE7       30.20F
A. F. ACADEMY  MOSUNNY   82  50  33 S12       30.19F
ELLICOTT       NOT AVBL
FALCON         MOSUNNY   82  44  26 SE8       30.25S
FORT CARSON    MOSUNNY   80  52  38 SE6       30.17F
LIMON          SUNNY     83  50  31 S14G23    30.13F
MONUMENT HILL  SUNNY     84  30  14 CALM      30.23S
TRINIDAD       MOSUNNY   86  40  19 N5        30.17F
$$

COZ042>045-048>051-090-091-091900-
...NORTHEAST COLORADO...

CITY           SKY/WX    TMP DP  RH WIND       PRES   REMARKS
GREELEY ARPT   PTSUNNY   82  61  47 E13       30.08F
AKRON          MOSUNNY   83  55  38 E16G24    30.10F
BURLINGTON     MOSUNNY   83  59  44 S13G23    30.11R
WRAY           PTSUNNY   89  56  33 SE9G17    30.07F
STERLING       MOSUNNY   86  59  39 S13G20    30.03F
HOLYOKE        PTSUNNY   81  61  50 S17       30.04F
FORT MORGAN    MOSUNNY   82  54  38 E15G22    30.09F
$$

COZ086-089-092>099-091900-
...SOUTHEAST COLORADO...

CITY           SKY/WX    TMP DP  RH WIND       PRES   REMARKS
PUEBLO         MOSUNNY   81  55  40 N5        30.09F
LA JUNTA       MOSUNNY   88  51  28 VRB5      30.06F
LAMAR          PTSUNNY   89  54  30 S16       30.04F
SPRINGFIELD      N/A     82  57  42 SE14G22   30.12F
$$


USA.gov is the U.S. government's official web portal to all federal, state and local government web resources and services.